Location: Rimrock Meadows
(47.4808°N, 119.7286°W)
Time: 13:48:47
(UTC-07:00)

Daily predictions for brighter satellites

Satellite Brightness Start Highest point End
(mag) Time Altitude Azimuth Time Altitude Azimuth Time Altitude Azimuth
Cosmos 468 Rocket 4.3 21:33:28 10° NNW 21:38:31 53° ENE 21:43:30 10° SE
Cosmos 2297 Rocket 2.9 21:33:34 10° SW 21:39:10 62° WNW 21:44:49 10° NNE
Cosmos 1850 Rocket 4.0 21:34:25 10° SSW 21:39:34 75° ESE 21:44:47 10° NNE
Cosmos 1300 3.9 21:38:15 10° NNE 21:41:37 29° ENE 21:44:58 10° SE
YAOGAN 6 3.6 21:39:09 10° S 21:42:40 46° W 21:46:14 10° NNW
Meteor 1-21 Rocket 4.3 21:37:39 10° S 21:43:13 61° E 21:48:43 10° NNE
Okean 3 Rocket 3.6 21:38:58 10° S 21:43:29 88° E 21:47:59 10° N
Cosmos 1726 2.9 21:40:11 10° N 21:43:38 37° ENE 21:47:04 10° SE
MetOp-B 4.2 21:39:00 10° SSE 21:44:22 80° ENE 21:49:45 10° NNW
Cosmos 1184 Rocket 4.3 21:44:01 10° SSW 21:47:12 41° WNW 21:50:27 10° N
USA 234 3.7 21:41:46 10° ENE 21:47:46 37° SE 21:53:44 10° SSW
ERS-1 Rocket 3.2 21:43:36 10° S 21:48:38 74° WSW 21:53:42 10° NNW
Cosmos 2263 Rocket 3.8 21:46:47 10° SE 21:49:58 16° E 21:53:10 10° ENE
Cosmos 2016 Rocket 4.1 21:43:57 10° N 21:50:14 66° ENE 21:56:23 10° SSE
Cosmos 1340 Rocket 3.9 21:47:47 10° SSW 21:51:42 50° WNW 21:55:41 10° N
EO 1 Delta rocket 4.3 21:50:40 10° SSE 21:55:09 48° ENE 21:59:40 10° N
ATLAS 5 CENTAUR R/B 1.8 21:50:34 10° SW 21:55:16 85° SE 22:00:29 10° NE
H-2A R/B 2.4 21:51:15 10° SSE 21:56:28 56° ENE 22:01:48 10° N
Cosmos 1766 Rocket 3.6 21:54:15 10° S 21:58:31 63° E 22:02:50 10° NNE
Cosmos 1328 Rocket 3.9 21:57:43 10° N 22:01:57 49° ENE 22:05:57 11° SSE
Terra 2.9 21:58:35 10° SE 22:02:47 32° ENE 22:07:01 10° N
Cosmos 1741 Rocket 4.4 21:59:17 10° SSW 22:04:35 73° WNW 22:09:55 10° NNE
YAOGAN 11 4.2 22:00:10 10° SSE 22:04:41 89° W 22:09:16 10° NNW
USA 245 3.3 22:01:45 10° SSE 22:05:10 89° WSW 22:09:33 10° NNW
Cosmos 1515 Rocket 4.2 22:02:40 10° N 22:06:47 40° ENE 22:10:26 13° SE
Cosmos 332 Rocket 3.9 22:04:22 10° NNW 22:09:17 79° ENE 22:13:50 12° SSE
Cosmos 2228 Rocket 3.4 22:05:52 10° N 22:10:24 57° ENE 22:14:31 12° SSE
SL-08 RB Rocket 3.7 22:06:24 10° SSE 22:10:57 90° S 22:15:37 10° NNW
Cosmos 1151 Rocket 3.9 22:07:02 10° N 22:11:06 36° ENE 22:14:34 13° SE
Cosmos 1674 3.3 22:08:17 10° SSW 22:11:59 56° WNW 22:15:42 10° N
Cosmos 1603 3.8 22:06:45 10° NNW 22:12:27 83° WSW 22:17:44 12° SSE
H-2A R/B 3.2 22:11:18 12° SE 22:14:45 30° ENE 22:18:29 10° N
Cosmos 1743 Rocket 4.0 22:10:46 10° SSE 22:14:48 43° E 22:18:54 10° NNE
Cosmos 2233 Rocket 4.5 22:09:01 10° N 22:15:00 46° ENE 22:20:15 13° SE
Cosmos 1455 4.1 22:12:27 10° NNE 22:15:07 18° ENE 22:17:40 10° ESE
ERBS 2.3 22:14:22 10° NW 22:17:47 87° NE 22:20:28 15° SE
Cosmos 2084 3.4 22:15:10 10° SW 22:19:07 73° NW 22:22:56 10° NE
IGS 5A 4.2 22:17:41 14° SE 22:20:56 40° ENE 22:24:51 10° N
KORONAS-FOTON 4.4 22:22:32 10° SSW 22:26:17 57° WNW 22:30:02 10° N
Cosmos 1943 3.3 22:22:52 10° NNW 22:28:33 71° ENE 22:33:10 16° SE
SL-16 R/B 4.0 22:24:25 10° NW 22:28:52 24° WSW 22:33:18 10° SSW
DMSP B5D2-2 4.3 22:24:41 10° NNE 22:29:49 52° E 22:34:34 12° S
ARGOS 3.8 22:25:11 10° S 22:30:29 54° W 22:35:48 10° NNW
BREEZE-M DEB (TANK) 2.4 22:29:29 10° W 22:31:48 70° N 22:38:12 10° E
Cosmos 1814 Rocket 4.2 22:32:10 10° NNW 22:37:31 72° WSW 22:41:53 15° S
Nimbus 7 Rocket 4.5 22:36:09 10° NNE 22:42:15 90° E 22:48:14 10° SSW
Cosmos 1703 4.0 22:42:24 20° SSE 22:44:39 38° E 22:48:22 10° NNE
Cosmos 1486 Rocket 4.1 22:41:25 10° S 22:46:35 62° ESE 22:51:51 10° NNE
Cosmos 2123 Rocket 4.1 22:41:31 10° SSW 22:47:41 79° W 22:53:56 10° N
PSLV R/B 3.9 22:46:56 24° ESE 22:48:08 36° ENE 22:50:49 10° N
Cosmos 220 Rocket 4.0 22:44:05 10° SSW 22:48:30 82° ESE 22:52:55 10° NNE
Cosmos 841 Rocket 3.5 22:43:37 10° NNW 22:48:55 90° WSW 22:52:41 19° SSE
Cosmos 1763 Rocket 3.6 22:46:15 10° NNW 22:51:20 69° WSW 22:55:04 18° S
SPOT 1/Viking Rocket 4.2 22:46:49 11° S 22:51:34 49° W 22:56:35 10° NNW
Cosmos 2058 3.0 22:54:17 19° S 22:57:08 66° E 23:01:20 10° NNE
Tiangong 1 1.8 22:55:05 10° WSW 22:57:26 28° SSW 22:57:26 28° SSW
CZ-2C R/B 4.5 22:55:02 10° NE 22:57:54 15° E 22:59:52 12° ESE
Cosmos 2285 Rocket 4.2 22:52:32 10° NNW 22:58:52 68° ENE 23:03:26 20° SE
Cosmos 371 Rocket 4.0 22:54:58 10° NNW 22:59:33 46° WSW 23:03:05 16° S
SPOT 5 4.5 22:56:50 10° SSW 23:01:05 30° W 23:05:34 10° NNW
Abrixas rocket 2.9 22:58:07 10° W 23:01:09 36° SSW 23:02:02 29° S
deb Chang Zheng 4 3.8 22:57:27 10° NNE 23:01:44 51° E 23:04:17 23° SSE
Meteor 1-11 4.3 22:56:44 13° S 23:02:02 83° E 23:07:53 10° NNE
Lacrosse 5 2.9 22:57:42 10° WNW 23:02:13 33° SW 23:05:04 19° S
RESURS DK-1 4.1 23:03:50 10° NW 23:07:10 24° WSW 23:09:56 13° SSW
Cosmos 1707 Rocket 4.3 23:04:26 10° N 23:08:42 41° ENE 23:11:01 23° SE
SME Rocket 3.4 23:11:51 25° SE 23:13:57 57° ENE 23:18:42 10° N
Cosmos 1626 2.0 23:14:26 24° S 23:16:33 89° W 23:20:19 10° N
Cosmos 2151 3.3 23:15:40 16° SSW 23:19:01 64° W 23:23:19 10° N
Cosmos 1500 Rocket 4.2 23:15:50 12° SSW 23:19:49 54° WNW 23:24:12 10° N
SL-24 R/B 4.4 23:25:16 29° SSE 23:27:18 89° WSW 23:31:32 10° NNW
Cosmos 1666 Rocket 4.2 23:25:46 28° SE 23:27:33 40° E 23:31:44 10° NNE
CZ-4C R/B 3.2 23:26:43 23° SE 23:27:59 25° ESE 23:32:38 10° ENE
USA 234 3.4 23:24:35 10° NE 23:31:09 79° NNW 23:37:41 10° WSW
Cosmos 1503 Rocket 3.9 23:28:46 20° SSW 23:32:27 80° ESE 23:37:38 10° NNE
Cosmos 1464 Rocket 4.0 23:26:25 10° N 23:32:36 78° E 23:36:22 25° SSE
Cosmos 2263 Rocket 2.2 23:27:40 11° SSW 23:33:06 85° WNW 23:38:45 10° NNE
COSMOS 2406 3.9 23:28:59 10° NNW 23:34:28 48° NE 23:38:16 19° ESE
H-2A R/B 4.0 23:32:01 10° SW 23:36:13 23° W 23:40:30 10° NW
CZ-4 R/B 3.9 23:33:23 10° NNE 23:38:18 80° WNW 23:41:31 21° SSW
Cosmos 1805 Rocket 3.4 23:36:43 30° S 23:38:46 78° E 23:43:08 10° NNE
Terra 3.1 23:37:24 17° SSW 23:40:29 33° W 23:44:49 10° NNW
ATLAS 5 CENTAUR R/B 4.4 23:36:35 10° W 23:40:39 25° NNW 23:45:05 10° NNE
Cosmos 1633 Rocket 3.4 23:43:01 33° SSE 23:44:34 49° E 23:48:47 10° NNE
CZ-4B R/B 3.6 23:43:26 10° NNE 23:48:45 81° WNW 23:52:12 22° SSW
H-2A R/B 3.5 23:48:25 18° SW 23:50:45 29° W 23:54:29 10° NW
Cosmos 1455 3.2 23:47:22 10° NNW 23:51:01 40° W 23:52:39 26° SW
Cosmos 967 Rocket 4.5 23:46:20 10° NW 23:52:42 78° WSW 23:56:18 28° SSE
Cosmos 540 Rocket 3.9 23:48:15 10° NNW 23:53:16 53° WSW 23:55:44 28° SSW
Cosmos 1869 3.3 23:49:58 10° NNW 23:53:56 76° W 23:55:16 39° S
